This demonstration page uses our WeatherBlox Daily Observations layout. Learn more.

Left ArrowRight Arrow

47.50024, -111.30081

Hourly Observations for January 30, 2016

Temp ( °F °C ) Dew Point ( °F °C ) Humidity (%) Winds ( mph kmh ) Pressure ( in mb ) Visibility ( mi km ) Precip ( " mm )
12:53 am 00:53 Mostly Cloudy 34 1.1 19 -7.2 54 54 SW 20 31 29.57 1001 10 16 0.00 0.00
1:53 am 01:53 Cloudy 33 0.6 19 -7.2 56 56 SW 15 24 29.58 1002 10 16 0.00 0.00
2:53 am 02:53 Cloudy 32 0 19 -7.2 59 59 SW 14 22 29.60 1002 10 16 0.00 0.00
3:53 am 03:53 Cloudy 33 0.6 18 -7.8 54 54 SW 14 22 29.62 1003 10 16 0.00 0.00
4:53 am 04:53 Cloudy 32 0 18 -7.8 56 56 SW 14 22 29.64 1004 10 16 0.00 0.00
5:53 am 05:53 Cloudy 32 0 18 -7.8 56 56 SW 15 24 29.65 1004 10 16 0.00 0.00
6:53 am 06:53 Cloudy 31 -0.6 18 -7.8 59 59 SW 14 22 29.67 1005 10 16 0.00 0.00
7:53 am 07:53 Mostly Clear 32 0 17 -8.3 54 54 WSW 17 28 29.66 1005 10 16 0.00 0.00
8:53 am 08:53 Mostly Sunny 35 1.7 15 -9.4 44 44 WSW 17 28 29.67 1005 10 16 0.00 0.00
9:53 am 09:53 Sunny 34 1.1 17 -8.3 50 50 WSW 16 26 29.69 1005 10 16 0.00 0.00
10:53 am 10:53 Sunny 37 2.8 13 -10.6 37 37 W 20 31 29.68 1005 10 16 0.00 0.00
11:53 am 11:53 Sunny 40 4.4 12 -11.1 32 32 W 20 31 29.67 1005 10 16 0.00 0.00
12:53 pm 12:53 Sunny 40 4.4 12 -11.1 32 32 W 20 31 29.67 1005 10 16 0.00 0.00
1:53 pm 13:53 Sunny 41 5 10 -12.2 28 28 W 15 24 29.67 1005 10 16 0.00 0.00
2:53 pm 14:53 Sunny 42 5.6 9 -12.8 25 25 W 18 30 29.68 1005 10 16 0.00 0.00
3:53 pm 15:53 Sunny 40 4.4 11 -11.7 30 30 W 17 28 29.70 1006 10 16 0.00 0.00
4:53 pm 16:53 Sunny 37 2.8 15 -9.4 41 41 W 16 26 29.74 1007 10 16 0.00 0.00
5:53 pm 17:53 Mostly Clear 33 0.6 15 -9.4 47 47 W 18 30 29.77 1008 10 16 0.00 0.00
6:53 pm 18:53 Clear 30 -1.1 16 -8.9 56 56 WSW 15 24 29.80 1009 10 16 0.00 0.00
7:53 pm 19:53 Clear 27 -2.8 16 -8.9 63 63 WSW 14 22 29.82 1010 10 16 0.00 0.00
8:53 pm 20:53 Clear 26 -3.3 16 -8.9 66 66 SW 12 19 29.82 1010 10 16 0.00 0.00
9:53 pm 21:53 Mostly Clear 28 -2.2 17 -8.3 63 63 SW 12 19 29.83 1010 10 16 0.00 0.00
10:53 pm 22:53 Clear 24 -4.4 17 -8.3 75 75 SW 9 15 29.84 1011 10 16 0.00 0.00
11:53 pm 23:53 Clear 25 -3.9 18 -7.8 75 75 SW 13 20 29.83 1010 10 16 0.00 0.00

Powered by AerisWeather